WW4HG Weather Reports


time (UTC)temp
C
wind
direction
speed
KPH
gust
KPH
rain 1hr
cm
rain 24hr
cm
rain mn
cm
humidity
%
barometer
mb
20260503215138 18 247 0.0 0.0 0.00 0.00 0.00 40 1018.4
20260503214637 18 208 0.0 0.0 0.00 0.00 0.00 40 1018.4
20260503214132 18 221 0.0 0.0 0.00 0.00 0.00 40 1018.4
20260503213632 18 249 0.0 0.0 0.00 0.00 0.00 40 1018.4
20260503213128 18 289 4.8 8.0 0.00 0.00 0.00 40 1018.4
20260503212625 18 249 0.0 0.0 0.00 0.00 0.00 41 1018.4
20260503212123 18 345 4.8 8.0 0.00 0.00 0.00 40 1018.4
20260503211620 18 289 3.2 4.8 0.00 0.00 0.00 40 1018.7
20260503211115 18 254 0.0 0.0 0.00 0.00 0.00 40 1018.4
20260503210612 18 214 0.0 0.0 0.00 0.00 0.00 39 1018.4
20260503210109 18 316 9.7 11.3 0.00 0.00 0.00 39 1018.4
20260503205604 18 236 0.0 4.8 0.00 0.00 0.00 40 1018.4
20260503205101 18 289 0.0 0.0 0.00 0.00 0.00 40 1018.4
20260503204558 18 272 4.8 8.0 0.00 0.00 0.00 40 1018.7
20260503204055 18 315 0.0 0.0 0.00 0.00 0.00 40 1018.7
20260503203552 18 238 0.0 0.0 0.00 0.00 0.00 39 1018.7
20260503203049 18 287 4.8 8.0 0.00 0.00 0.00 40 1018.7
20260503202547 18 283 0.0 4.8 0.00 0.00 0.00 39 1018.7
20260503202045 18 215 0.0 0.0 0.00 0.00 0.00 40 1019.0
20260503201543 18 97 0.0 4.8 0.00 0.00 0.00 39 1019.0
20260503201040 18 321 6.4 8.0 0.00 0.00 0.00 39 1019.0
20260503200536 18 324 0.0 0.0 0.00 0.00 0.00 39 1019.4
20260503200033 18 276 4.8 11.3 0.00 0.00 0.00 40 1019.0
20260503195530 18 323 6.4 8.0 0.00 0.00 0.00 39 1019.4
20260503195027 18 310 0.0 0.0 0.00 0.00 0.00 40 1019.0
20260503194524 18 287 1.6 4.8 0.00 0.00 0.00 39 1019.4
20260503194023 18 285 6.4 8.0 0.00 0.00 0.00 40 1019.4
20260503193520 18 322 0.0 4.8 0.00 0.00 0.00 39 1019.7
20260503193010 18 264 0.0 0.0 0.00 0.00 0.00 40 1019.7
20260503192507 18 262 4.8 8.0 0.00 0.00 0.00 39 1019.7
20260503192003 18 259 0.0 0.0 0.00 0.00 0.00 39 1020.1
20260503191500 18 261 1.6 4.8 0.00 0.00 0.00 39 1020.1
20260503190956 18 272 6.4 8.0 0.00 0.00 0.00 39 1020.1
20260503190454 18 311 4.8 8.0 0.00 0.00 0.00 39 1020.1
20260503185951 18 289 8.0 8.0 0.00 0.00 0.00 38 1020.1
20260503185447 18 322 11.3 16.1 0.00 0.00 0.00 38 1020.4
20260503184946 17 275 4.8 8.0 0.00 0.00 0.00 38 1020.4
20260503184443 17 312 0.0 4.8 0.00 0.00 0.00 38 1020.7
20260503183939 17 246 0.0 0.0 0.00 0.00 0.00 38 1020.7
20260503183436 17 288 1.6 4.8 0.00 0.00 0.00 39 1020.7
20260503182933 17 307 9.7 11.3 0.00 0.00 0.00 39 1020.7
20260503182432 17 329 6.4 8.0 0.00 0.00 0.00 39 1020.7
20260503181929 17 284 6.4 8.0 0.00 0.00 0.00 38 1020.7
20260503181426 17 220 0.0 0.0 0.00 0.00 0.00 37 1020.7
20260503180922 17 270 1.6 4.8 0.00 0.00 0.00 39 1021.1
20260503180421 17 300 0.0 0.0 0.00 0.00 0.00 38 1021.1
20260503175916 17 283 1.6 4.8 0.00 0.00 0.00 37 1021.1
20260503175414 17 208 0.0 4.8 0.00 0.00 0.00 38 1021.1
20260503174909 17 297 1.6 4.8 0.00 0.00 0.00 38 1021.4
20260503174408 17 283 1.6 4.8 0.00 0.00 0.00 37 1021.1
20260503173903 17 330 0.0 0.0 0.00 0.00 0.00 38 1021.1
20260503173400 17 302 0.0 4.8 0.00 0.00 0.00 38 1021.4
20260503172856 17 282 3.2 4.8 0.00 0.00 0.00 38 1021.4
20260503172354 17 277 4.8 8.0 0.00 0.00 0.00 39 1021.1
20260503171850 17 311 6.4 8.0 0.00 0.00 0.00 37 1021.4
20260503171347 17 227 0.0 4.8 0.00 0.00 0.00 38 1021.4
20260503170845 17 239 0.0 4.8 0.00 0.00 0.00 38 1021.4
20260503170341 17 312 0.0 0.0 0.00 0.00 0.00 39 1021.4
20260503150733 16 306 0.0 4.8 0.00 0.00 0.00 45
20260503150229 16 155 0.0 0.0 0.00 0.00 0.00 44
20260503140153 15 156 0.0 4.8 0.00 0.00 0.00 50
20260503131117 15 287 3.2 4.8 0.00 0.00 0.00 61
20260503130615 15 319 3.2 4.8 0.00 0.00 0.00 62
20260503130112 15 309 1.6 4.8 0.00 0.00 0.00 63
20260503110459 7 187 0.0 0.0 0.00 0.00 0.00 88
20260503090349 7 197 0.0 0.0 0.00 0.00 0.00 86 1018.7
20260503081318 7 175 0.0 0.0 0.00 0.00 0.00 86 1018.4
20260503080814 7 175 0.0 0.0 0.00 0.00 0.00 86 1018.4
20260503080312 7 175 0.0 0.0 0.00 0.00 0.00 86 1018.0
20260503072748 8 175 0.0 0.0 0.00 0.00 0.00 85 1018.0
20260503072245 8 175 0.0 0.0 0.00 0.00 0.00 85 1018.0
20260503071741 8 175 0.0 0.0 0.00 0.00 0.00 85 1017.7
20260503071238 8 175 0.0 0.0 0.00 0.00 0.00 85 1017.7
20260503070734 8 175 0.0 0.0 0.00 0.00 0.00 84 1017.7
20260503070232 8 175 0.0 0.0 0.00 0.00 0.00 84 1017.7
20260503060151 10 197 0.0 0.0 0.00 0.00 0.00 80 1017.3
20260503054638 10 188 0.0 0.0 0.00 0.00 0.00 79 1017.3
20260503054136 10 197 0.0 0.0 0.00 0.00 0.00 79 1017.3
20260503053633 10 197 0.0 0.0 0.00 0.00 0.00 78 1017.7
20260503053132 10 197 0.0 0.0 0.00 0.00 0.00 78 1017.3
20260503052628 10 197 0.0 0.0 0.00 0.00 0.00 78 1017.3
20260503052124 10 197 0.0 0.0 0.00 0.00 0.00 77 1017.3
20260503051619 11 197 0.0 0.0 0.00 0.00 0.00 77 1017.3
20260503051112 11 197 0.0 0.0 0.00 0.00 0.00 77 1017.3
20260503050608 11 197 0.0 0.0 0.00 0.00 0.00 77 1017.3
20260503050105 11 226 0.0 0.0 0.00 0.00 0.00 77 1017.0
20260503045602 11 204 0.0 0.0 0.00 0.00 0.00 77 1017.3
20260503045100 11 233 0.0 0.0 0.00 0.00 0.00 77 1017.3
20260503044556 11 259 0.0 0.0 0.00 0.00 0.00 78 1017.3
20260503044054 11 210 0.0 0.0 0.00 0.00 0.00 78 1017.0
20260503043549 11 226 0.0 0.0 0.00 0.00 0.00 78 1017.0
20260503043047 11 229 0.0 0.0 0.00 0.00 0.00 78 1017.0
20260503042543 11 209 0.0 0.0 0.00 0.00 0.00 79 1017.0
20260503042040 11 212 0.0 0.0 0.00 0.00 0.00 78 1017.0
20260503041536 11 279 1.6 4.8 0.00 0.00 0.00 78 1017.0
20260503041034 11 204 0.0 0.0 0.00 0.00 0.00 79 1016.7
20260503040531 11 124 0.0 0.0 0.00 0.00 0.00 79 1016.7
20260503040029 11 215 0.0 0.0 0.00 0.00 0.00 79 1016.7
20260503035525 11 304 3.2 4.8 0.00 2.82 2.82 80 1016.7
20260503035023 11 274 0.0 4.8 0.00 2.82 2.82 80 1016.3
20260503034520 11 260 1.6 4.8 0.00 2.82 2.82 80 1016.7
20260503034017 11 288 1.6 4.8 0.00 2.82 2.82 80 1016.7
20260503033514 11 222 0.0 0.0 0.00 2.82 2.82 79 1016.7
20260503033012 11 204 0.0 0.0 0.00 2.82 2.82 79 1016.7
20260503032510 11 266 0.0 0.0 0.00 2.82 2.82 79 1016.3
20260503032008 11 146 0.0 0.0 0.00 2.82 2.82 79 1016.3
20260503031506 11 197 0.0 0.0 0.00 2.82 2.82 79 1016.3
20260503031002 11 294 0.0 0.0 0.00 2.82 2.82 79 1016.3
20260503030458 11 305 3.2 4.8 0.00 2.82 2.82 79 1016.0
20260503025955 11 216 0.0 0.0 0.00 2.82 2.82 79 1016.0
20260503025452 12 212 0.0 0.0 0.00 2.82 2.82 79 1015.6
20260503024950 12 240 0.0 0.0 0.00 2.82 2.82 79 1015.3
20260503024446 12 210 0.0 0.0 0.00 2.82 2.82 79 1015.3
20260503023944 12 281 0.0 0.0 0.00 2.82 2.82 79 1015.3
20260503023440 12 232 0.0 0.0 0.00 2.82 2.82 79 1015.0
20260503022937 12 273 0.0 0.0 0.00 2.82 2.82 79 1015.3
20260503022432 12 200 0.0 0.0 0.00 2.82 2.82 80 1015.3
20260503021928 12 282 0.0 4.8 0.00 2.82 2.82 80 1015.6
20260503021425 12 331 9.7 11.3 0.00 2.82 2.82 80 1015.3
20260503020922 12 282 0.0 0.0 0.00 2.82 2.82 80 1015.0
20260503020420 12 289 0.0 0.0 0.00 2.82 2.82 80 1015.3
20260503015916 12 197 0.0 0.0 0.00 2.82 2.82 81 1015.0
20260503015413 12 251 1.6 4.8 0.00 2.82 2.82 81 1015.0
20260503014909 12 218 0.0 0.0 0.00 2.82 2.82 81 1015.0
20260503014406 12 227 0.0 0.0 0.00 2.82 2.82 81 1015.0
20260503013904 12 270 0.0 0.0 0.00 2.82 2.82 81 1014.6
20260503013401 12 246 0.0 0.0 0.00 2.82 2.82 80 1015.0
20260503012858 12 246 0.0 0.0 0.00 2.82 2.82 80 1015.0
20260503012356 12 231 0.0 0.0 0.00 2.82 2.82 80 1014.6
20260503011852 12 13 0.0 0.0 0.00 2.82 2.82 80 1014.6
20260503011349 12 11 0.0 0.0 0.00 2.82 2.82 80 1014.6
20260503010845 12 197 0.0 0.0 0.00 2.82 2.82 80 1014.3
20260503010342 12 197 0.0 0.0 0.00 2.82 2.82 80 1014.3
20260503005839 12 165 0.0 0.0 0.00 2.82 2.82 80 1014.3
20260503005331 12 207 0.0 0.0 0.00 2.82 2.82 80 1014.3
20260503004827 12 197 0.0 0.0 0.00 2.82 2.82 80 1014.0
20260503004325 12 225 0.0 4.8 0.00 2.82 2.82 80 1014.0
20260503003822 12 280 4.8 8.0 0.00 2.82 2.82 81 1014.3
20260503003319 12 257 4.8 8.0 0.00 2.82 2.82 81 1014.6
20260503002815 12 197 0.0 0.0 0.00 2.82 2.82 81 1014.3
20260503002307 12 220 0.0 0.0 0.00 2.82 2.82 81 1014.3
20260503001804 12 356 3.2 4.8 0.00 2.82 2.82 82 1014.0
20260503001300 12 283 0.0 4.8 0.00 2.82 2.82 82 1014.0
20260503000757 12 289 1.6 4.8 0.00 2.82 2.82 82 1014.0
20260503000254 12 284 0.0 4.8 0.00 2.82 2.82 82 1013.6
20260502235752 12 177 0.0 0.0 0.00 2.82 2.82 83 1013.6
20260502235249 12 237 0.0 0.0 0.00 2.82 2.82 83 1013.6
20260502234745 12 326 1.6 4.8 0.00 2.82 2.82 83 1013.3
20260502234243 12 306 4.8 8.0 0.00 2.82 2.82 83 1013.3
20260502233738 12 212 0.0 0.0 0.00 2.82 2.82 83 1012.9
20260502233235 12 197 0.0 0.0 0.00 2.82 2.82 83 1013.3
20260502232731 12 259 0.0 0.0 0.00 2.82 2.82 83 1013.3
20260502232228 12 287 3.2 8.0 0.00 2.82 2.82 82 1013.3
20260502231725 12 260 1.6 4.8 0.00 2.82 2.82 83 1013.3
20260502231223 12 280 4.8 8.0 0.00 2.82 2.82 83 1013.3
20260502230722 12 210 1.6 4.8 0.00 2.82 2.82 83 1013.3
20260502230219 12 334 3.2 4.8 0.00 2.82 2.82 83 1012.9
20260502225715 12 310 0.0 4.8 0.00 2.82 2.82 83 1012.9
20260502225213 12 268 1.6 4.8 0.00 2.82 2.82 83 1013.3
20260502224708 12 277 4.8 8.0 0.00 2.82 2.82 83 1013.3
20260502224205 12 289 0.0 0.0 0.00 2.82 2.82 83 1013.3
20260502223703 12 289 0.0 0.0 0.00 2.82 2.82 83 1013.3
20260502223201 12 25 0.0 4.8 0.00 2.82 2.82 83 1012.9
20260502222658 12 280 0.0 4.8 0.00 2.82 2.82 84 1012.9
20260502222155 12 197 0.0 0.0 0.00 2.82 2.82 84 1012.9
20260502221650 12 289 4.8 8.0 0.00 2.82 2.82 84 1012.9
20260502221148 12 268 0.0 4.8 0.00 2.82 2.82 84 1012.9
20260502220644 12 251 1.6 4.8 0.00 2.82 2.82 84 1013.3
20260502220140 12 289 8.0 16.1 0.00 2.82 2.82 84 1012.9
20260502215637 12 289 3.2 4.8 0.00 2.82 2.82 84 1012.9